Regional Weather Roundup
Issued by NWS Midland/Odessa, TX

Home | Current Version | Previous Version | Text Only | Print | Product List | Glossary On
Versions: 1 2 3 4 5 6 7 8 9 10 11 12 13 14 15 16 17 18 19 20 21 22 23 24 25 26 27 28 29 30 31 32 33 34 35 36 37 38 39 40 41 42 43 44 45 46 47 48 49 50
000
ASUS44 KMAF 290710
RWRMAF
MIDLAND AREA WEATHER ROUNDUP
NATIONAL WEATHER SERVICE MIDLAND TX
200 AM CDT WED JUL 29 2015

...IN SOUTHWEST TEXAS AND SOUTHEAST NEW MEXICO...

CITY           SKY/WX    TMP DP  RH WIND       PRES   REMARKS
ALPINE         PTCLDY    75  58  55 CALM      30.19S
ANDREWS        FAIR      84  58  41 SW12      30.08S
ARTESIA        CLOUDY    75  64  69 W17       30.16R THUNDER
BIG SPRING     CLEAR     80  55  42 SE10      30.05S
CARLSBAD       LGT RAIN  74  68  81 NW15      30.13F
DRYDEN           N/A     82  62  50 W6        29.98S
FORT STOCKTON  CLEAR     81  63  54 SE10G20   30.03S
GUAD PASS      LGT RAIN  71  58  63 W5        30.26R
HOBBS          MOCLDY    73  61  64 N14       30.14R
MARFA          PTCLDY    66  63  88 NE3       30.17F
MIDLAND AIRPK  CLEAR     84  57  39 S9        30.04S
MIDLAND INTL   CLEAR     84  59  42 S12       30.04R
ODESSA         CLEAR     84  59  42 S15       30.05R
PECOS          CLEAR     84  59  42 SE9       30.00S
PRESIDIO       FAIR      81  64  56 CALM      29.99F
SEMINOLE       CLEAR     75  62  62 N5        30.11R
SNYDER         CLEAR     82  63  52 SE10      30.03R
WINK           MOCLDY    86  60  41 SE7       30.03R
$$
...OTHER STATIONS IN TEXAS...

CITY           SKY/WX    TMP DP  RH WIND       PRES   REMARKS
ABILENE        CLEAR     81  62  52 SE8       30.00S
AMARILLO       CLOUDY    68  64  87 N8        30.14F
AUSTIN         MOCLDY    77  74  90 S6        30.00S
BROWNSVILLE    PTCLDY    82  79  90 SE8       29.96F
CORPUS CHRISTI PTCLDY    82  77  84 S13       29.97F
DALLAS FTW     CLEAR     86  65  49 S9        29.97R
DEL RIO        CLEAR     86  71  60 E13G22    29.93S
EL PASO        TSTM      71  64  78 N8        30.15S
HOUSTON INT    PTCLDY    82  76  81 CALM      30.00R
LUBBOCK        PTCLDY    73  62  68 N14       30.11S
SAN ANGELO     CLEAR     82  62  50 S7        30.01R
SAN ANTONIO    CLEAR     80  71  74 S14       30.01F
WACO           CLEAR     84  71  65 S15       29.98S
WICHITA FALLS  NOT AVBL
$$
...OTHER LOCATIONS IN NEW MEXICO...

CITY           SKY/WX    TMP DP  RH WIND       PRES   REMARKS
ALAMAGORDO     CLOUDY    72  63  73 S8        30.18R
ALBUQUERQUE    CLOUDY    74  54  49 E10       30.23R
CANNON AFB     MOCLDY    67  65  93 SE10      30.16F
CLOVIS         MOCLDY    64  63  94 E6        30.17F
HOLLOMAN AFB   MOCLDY    73  64  73 SE8       30.16R
ROSWELL        CLOUDY    74  64  71 NW8       30.15R
RUIDOSO          N/A    N/A N/A N/A MISG        N/A
SANTA FE       PTCLDY    66  52  60 S7        30.31R
TRUTH OR CONSE CLOUDY    70  64  81 W5        30.18F
TUCUMCARI      MOCLDY    66  64  93 NW6       30.17F
$$


USA.gov is the U.S. government's official web portal to all federal, state and local government web resources and services.